ELEKTRON 3 DEB, 29008

Orbit data source: Space-Track

ELEKTRON 3 DEB, 29008 is space debris originally from a launch on Fri, 10 Jul 1964 UTC launched from the Tyuratam Missile And Space Complex (TTMTR). Debris objects in space refer to the collection of defunct objects orbiting the Earth. Examples of debris include non-operational satellites, rocket bodies, and fragments generated from explosions, collisions, or faulty payload assembly.

Loading next visibility...
Identifier
29008, 1964-038G
Orbit
Active
Country
Flag of CISCIS
Related business
Manufacturer
Unknown
Mission
Spacecraft
Bus & Motor
Unknown
Mass
Unknown
Launch date (UTC)
1964-07-10 (62 years ago)
Launch vehicle
Unknown
Launch site
Tyuratam Missile And Space Complex (TTMTR)
Object type
Payload
Rocket body
Debris
Shape & HBR
Unknown shape, 0.1 m
Radar Cross Section
Small (<0.1 m²)

Expand to show TLE details & history
Last TLE update: 4 days ago

TLE from 4 days ago
0 ELEKTRON 3 DEB
1 29008U 64038G   26141.58604122  .00000970  00000-0  24899-3 0  9993
2 29008  60.8282 178.1785 2863977  27.1179 345.3958  9.37478762729461
Epoch: 2026-05-21T14:03Z
TLE epoch observation values (Epoch: 2026-05-21T14:03:53.961Z)
Latitude
-0.00012°
Longitude
87.97447°
Altitude
571.519 km
Speed
8.532 km/s
True Right ascension
11h 52m 42s
True Declination
0° 00' 00"
Sunlit
Object was in full shadow at epoch
Visualization orbit readout
Latitude
Unknown
Longitude
Unknown
Altitude
Unknown
Speed
Unknown
Apparent Right ascension
Unknown
Apparent Declination
Unknown
Sunlit
N/A
Visualization observer readout
Local Sidereal Time
16:33:56
Azimuth
Unknown
Elevation
Unknown
Doppler factor
Unknown
Orbital elements
Apogee altitude
5,842.724 km
Perigee altitude
401.131 km
Semi-major axis
9,500.064 km
Eccentricity
0.2864
Inclination
60.8282°
RAAN
178.1785°
Arg. of periapsis
27.1179°
True anomaly
332.97351°
Mean anomaly
345.3958°
Eccentric anomaly
339.70383°
Mean motion
2.34398 °/min
Orbital period
153.59 mins
BSTAR
0.00024899
Loading maneuver chart data...
Computing Atmospheric mass density...
Loading historical data...
Loading historical data...
Loading historical data...
Loading historical data...
Loading historical data...
Loading historical data...
Loading historical data...

Documentation

Showing up to 5 results
|